Regional Weather Roundup
Issued by NWS

Home | Current Version | Previous Version | Text Only | Print | Product List | Glossary Off
Versions: 1 2 3 4 5 6 7 8 9 10 11 12 13 14 15 16 17 18 19 20 21 22 23 24 25 26 27 28 29 30 31 32 33 34 35 36 37 38 39 40 41 42 43 44 45 46 47 48 49 50

000
ASUS45 KBOU 222007
RWRCO

WEATHER ROUNDUP FOR COLORADO
NATIONAL WEATHER SERVICE DENVER/BOULDER CO
200 PM MDT FRI AUG 22 2014

NOTE: "FAIR" INDICATES FEW OR NO CLOUDS BELOW 12000 FEET WITH NO
SIGNIFICANT WEATHER AND/OR OBSTRUCTIONS TO VISIBILITY.

COZ001>005-013-030-031-222100-
...NORTHWEST COLORADO...

CITY           SKY/WX    TMP DP  RH WIND       PRES   REMARKS
CRAIG          CLOUDY    73  46  38 CALM      30.10F
HAYDEN         CLOUDY    70  43  37 E6        30.13F
MEEKER         CLOUDY    72  46  39 S13       30.12F
MOUNT WERNER   NOT AVBL
STEAMBOAT SPGS CLOUDY    70  45  40 E10       30.15F
WALDEN         CLOUDY    64  39  39 S15       30.25F
$$

COZ006>008-011-222100-
...WEST CENTRAL VALLEYS...

CITY           SKY/WX    TMP DP  RH WIND       PRES   REMARKS
GRAND JUNCTION PTSUNNY   78  48  34 W14       30.04F
MONTROSE       CLOUDY    73  51  46 CALM      30.14F
EAGLE          CLOUDY    66  50  55 CALM      30.20F
RIFLE          CLOUDY    72  47  40 CALM      30.10F
DELTA          LGT RAIN  77  47  34 E6        30.10F
NUCLA          LGT RAIN  72  48  43 S9        30.16F
$$

COZ017>023-064>068-222100-
...SOUTHWEST COLORADO...

CITY           SKY/WX    TMP DP  RH WIND       PRES   REMARKS
DURANGO        CLOUDY    64  51  62 SE14G20   30.24F
CORTEZ         PTSUNNY   72  51  47 SE13      30.15F
PAGOSA SPRINGS DRIZZLE   57  51  80 SE3       30.32F
TELLURIDE      CLOUDY    61  39  44 S13G21    30.32F
WOLF CREEK PAS NOT AVBL
$$

COZ009-010-012-014-032>034-037-058>063-222100-
...CENTRAL COLORADO...

CITY           SKY/WX    TMP DP  RH WIND       PRES   REMARKS
ASPEN          CLOUDY    63  48  58 S8        30.24F
BUENA VISTA    RAIN      58  49  73 SE13G22   30.32S
COPPER MTN     CLOUDY    54  41  62 S17G25    30.52R
BERTHOUD PASS  CLOUDY    41  39  93 SE10      30.57S
COTTONWOOD PAS LGT RAIN  55  46  71 S3        30.41F
GUNNISON       CLOUDY    61  48  63 N8        30.29F
KREMMLING      CLOUDY    64  43  45 CALM      30.22F
LEADVILLE      CLOUDY    52  43  71 S14       30.39F
MONARCH PASS   LGT RAIN  41  39  93 S12       30.64S VSB<1/4
SALIDA         CLOUDY    60  53  75 CALM      30.37S
SUNLIGHT       CLOUDY    55  48  76 CALM      30.44F
WILKERSON PASS NOT AVBL
$$

COZ069>075-222100-
...SAN LUIS VALLEY/SANGRE DE CRISTO MOUNTAINS...

CITY           SKY/WX    TMP DP  RH WIND       PRES   REMARKS
ALAMOSA        LGT RAIN  56  53  90 SW13      30.32F
LA VETA PASS   NOT AVBL
SAGUACHE       LGT RAIN  54  52  94 SE8       30.35F
$$

COZ035-036-038>040-222100-
...NORTHERN COLORADO FRONT RANGE...

CITY           SKY/WX    TMP DP  RH WIND       PRES   REMARKS
DENVER INTL AP LGT RAIN  71  58  63 S5        30.14S
DMNS CITY PARK   N/A     69  56  64 SE7       30.13S
AURORA         LGT RAIN  68  58  70 SW3       30.16F
FRONT RANGE AP CLOUDY    73  59  60 E9        30.15
ERIE MUNI ARPT CLOUDY    74  53  48 S8        30.11S
BOULDER MUN AP CLOUDY    72  52  49 SE7       30.11F
CENTENNIAL     LGT RAIN  67  57  70 S5        30.17F
BROOMFIELD     CLOUDY    72  54  53 S9        30.15F
FORT COLLINS   CLOUDY    75  57  53 SE10      30.11S
LONGMONT       CLOUDY    75  58  54 SE7       30.12F
$$

COZ041-046-047-076>085-087-088-222100-
...PIKES PEAK/PALMER DIVIDE AND SOUTHERN FOOTHILLS...

CITY           SKY/WX    TMP DP  RH WIND       PRES   REMARKS
COLO. SPRINGS  CLOUDY    71  55  56 S6        30.20S
A. F. ACADEMY  LGT RAIN  66  57  72 S7        30.22R
ELLICOTT       LGT RAIN  74  57  55 E6        30.17F
FALCON         CLOUDY    68  56  64 S7        30.24F
FORT CARSON    DRIZZLE   72  54  53 VRB1      30.17F
LIMON          CLOUDY    78  55  44 E16       30.12F
MONUMENT HILL  TSTM      54  46  76 NW10      30.24R
TRINIDAD       PTSUNNY   80  51  36 NE15      30.12F
$$

COZ042>045-048>051-090-091-222100-
...NORTHEAST COLORADO...

CITY           SKY/WX    TMP DP  RH WIND       PRES   REMARKS
GREELEY ARPT   CLOUDY    73  57  56 SE8       30.11F
AKRON          CLOUDY    70  58  65 N9        30.14R
BURLINGTON     PTSUNNY   87  58  37 E16G30    30.05F
WRAY             N/A     86  52  30 NE13      30.07R
STERLING       CLOUDY    66  64  94 CALM      30.10S
HOLYOKE        NOT AVBL
FORT MORGAN    CLOUDY    67  61  79 E7        30.13S
$$

COZ086-089-092>099-222100-
...SOUTHEAST COLORADO...

CITY           SKY/WX    TMP DP  RH WIND       PRES   REMARKS
PUEBLO         LGT RAIN  78  60  53 VRB3      30.07F
LA JUNTA       LGT RAIN  87  59  38 N5        30.02F
LAMAR          CLOUDY    88  65  46 E13       29.97F
SPRINGFIELD      N/A     91  55  29 VRB7      30.00F
$$



USA.gov is the U.S. government's official web portal to all federal, state and local government web resources and services.